Find Stratosat TK-1

NORAD ID: 57167 Int'l Des: 2023-091 Owner: STRAT Country: RU decayed
LEOCIRCULARRETROGRADE

Historical Track — Jan 10, 2026

正在加载3D地球...

关于 Stratosat TK-1

正在加载描述...

高度历史

Loading altitude history...

两行轨道根数

1 57167U 23091B 26010.59363612 .08733485 25619-5 12458-2 0 9993
2 57167 97.4978 91.1570 0009532 282.8011 77.2220 16.34765267141469
Epoch: Jan 10, 2026 • Age: 3268 hours

当前状态

Position data unavailable
发射日期 Jun 27, 2023
运行时间 2.9 years
衰减日期 Jan 10, 2026
类型 other

技术详情

分类 Payload
质量 4.21 kg
干质量 4.21 kg
总质量 4.21 kg
长度 0.30 m
直径 0.10 m
跨度 0.30 m
形状 Box
制造商 GEOSK
平台类型 Cubesat 3U
阶段状态 Reentered
所有者/国家 STRAT/RU

Most Searched